Prague, Czech Republic

3:03 PM CEST on September 21, 2017 (GMT +0200)
Ruzyne

Weather History for LKPR - December, 2012

Change the Weather History Date:

Sunday, December 30, 2012

  Actual Average Record
Temperature  
Mean Temperature 32 °F -  
Max Temperature 40 °F 33 °F 51 °F (2002)
Min Temperature 23 °F 22 °F -2 °F (1996)
Degree Days  
Heating Degree Days 34    
Moisture  
Dew Point 28 °F    
Average Humidity 91    
Maximum Humidity 100    
Minimum Humidity 79    
Precipitation  
Precipitation 0.00 in 0.03 in - ()
Sea Level Pressure  
Sea Level Pressure 30.08 in    
Wind  
Wind Speed 5 mph ()    
Max Wind Speed 17 mph    
Max Gust Speed -    
Visibility 2.9 miles    
Events Fog , Rain    
Averages and records for this station are not official NWS values.
T = Trace of Precipitation, MM = Missing Value Source: Averaged Metar Reports

Daily Weather History Graph

Daily Weather History Graph

Search for Another Location

Airport or City:

Trip Planner

Search our weather history database for the weather conditions in past years. The results will help you decide how hot, cold, wet, or windy it might be!

Date:

Astronomy

Dec. 30, 2012 Rise Set
Actual Time 8:01 AM CET 4:09 PM CET
Civil Twilight 7:23 AM CET 4:47 PM CET
Nautical Twilight 6:41 AM CET 5:29 PM CET
Astronomical Twilight 6:02 AM CET 6:08 PM CET
Moon 6:38 PM CET (12/30) 8:47 AM CET (12/30)
Length of Visible Light 9h 24m
Length of Day
8h 07m
Waning Gibbous, 96% of the Moon is Illuminated
Dec 30
Waning Gibbous
Jan 5
Last Quarter
Jan 11
New
Jan 19
First Quarter
Jan 27
Full

Hourly Weather History & Observations

Time (CET) Temp. Windchill Dew Point Humidity Pressure Visibility Wind Dir Wind Speed Gust Speed Precip Events Conditions
12:00 AM 28.4 °F 23.3 °F 26.6 °F 93% 30.04 in - East 4.6 mph - N/A   Clear
12:30 AM 26.6 °F 20.0 °F 23.0 °F 86% 30.04 in - East 5.8 mph - N/A   Clear
1:00 AM 28 °F - 26 °F 86% 30.14 in 6 mi ESE 6.7 mph - -   Clear
1:00 AM 28.4 °F 23.3 °F 26.6 °F 93% 30.06 in - East 4.6 mph - N/A   Clear
1:30 AM 26.6 °F 21.2 °F 23.0 °F 86% 30.04 in - ESE 4.6 mph - N/A   Clear
2:00 AM 28.4 °F 22.2 °F 24.8 °F 86% 30.06 in - SE 5.8 mph - N/A   Clear
2:30 AM 26.6 °F 21.2 °F 24.8 °F 93% 30.06 in - SE 4.6 mph - N/A   Clear
3:00 AM 24.8 °F - 23.0 °F 93% 30.06 in 4.3 mi West 2.3 mph - N/A   Unknown
3:30 AM 24.8 °F 20.5 °F 23.0 °F 93% 30.06 in 3.7 mi SSW 3.5 mph - N/A   Unknown
4:00 AM 24.8 °F 19.1 °F 23.0 °F 93% 30.06 in 2.8 mi SW 4.6 mph - N/A Fog Patches of Fog
4:05 AM 23.0 °F 18.4 °F 23.0 °F 100% 30.06 in 0.5 mi SW 3.5 mph - N/A Fog Patches of Fog
4:09 AM 23.0 °F 18.4 °F 23.0 °F 100% 30.06 in 0.4 mi SW 3.5 mph - N/A   Scattered Clouds
4:13 AM 24.8 °F 19.1 °F 23.0 °F 93% 30.06 in 0.4 mi SW 4.6 mph - N/A Fog Light Freezing Fog
4:16 AM 24.8 °F 17.9 °F 24.8 °F 100% 30.06 in 0.4 mi SW 5.8 mph - N/A Fog Light Freezing Fog
4:20 AM 24.8 °F 17.9 °F 24.8 °F 100% 30.06 in 0.3 mi WSW 5.8 mph - N/A Fog Light Freezing Fog
4:30 AM 26.6 °F 21.2 °F 24.8 °F 93% 30.06 in 0.3 mi SW 4.6 mph - N/A Fog Light Freezing Fog
4:39 AM 26.6 °F 21.2 °F 24.8 °F 93% 30.06 in 0.4 mi SW 4.6 mph - N/A Fog Light Freezing Fog
4:46 AM 26.6 °F 22.6 °F 24.8 °F 93% 30.06 in 0.4 mi SW 3.5 mph - N/A Fog Light Freezing Fog
5:00 AM 24.8 °F 20.5 °F 24.8 °F 100% 30.06 in 0.4 mi SW 3.5 mph - N/A Fog Light Freezing Fog
5:07 AM 24.8 °F 20.5 °F 24.8 °F 100% 30.06 in 0.4 mi SW 3.5 mph - N/A Fog Light Freezing Fog
5:18 AM 24.8 °F 20.5 °F 24.8 °F 100% 30.06 in 0.3 mi SSW 3.5 mph - N/A Fog Light Freezing Fog
5:22 AM 24.8 °F 20.5 °F 24.8 °F 100% 30.06 in 0.2 mi SSW 3.5 mph - N/A Fog Light Freezing Fog
5:30 AM 24.8 °F 20.5 °F 24.8 °F 100% 30.06 in 0.2 mi SW 3.5 mph - N/A Fog Light Freezing Fog
6:00 AM 24.8 °F - 23.0 °F 93% 30.06 in 0.2 mi SW 2.3 mph - N/A Fog Light Freezing Fog
6:06 AM 24.8 °F 20.5 °F 23.0 °F 93% 30.06 in 0.2 mi SW 3.5 mph - N/A Fog Light Freezing Fog
6:30 AM 23.0 °F - 23.0 °F 100% 30.06 in 0.3 mi Variable 2.3 mph - N/A Fog Light Freezing Fog
6:43 AM 24.8 °F 20.5 °F 23.0 °F 93% 30.06 in 0.9 mi SW 3.5 mph - N/A Fog Patches of Fog
6:54 AM 24.8 °F 20.5 °F 23.0 °F 93% 30.06 in 0.9 mi SW 3.5 mph - N/A Fog Patches of Fog
7:00 AM 24 °F - 23 °F 95% 30.16 in 1 mi SW 2.2 mph - - Fog Light Fog
7:00 AM 24.8 °F - 23.0 °F 93% 30.06 in 0.9 mi Variable 2.3 mph - N/A   Mostly Cloudy
7:17 AM 24.8 °F - 23.0 °F 93% 30.06 in 1.9 mi Calm Calm - N/A   Scattered Clouds
7:30 AM 24.8 °F - 23.0 °F 93% 30.06 in 2.5 mi Calm Calm - N/A   Scattered Clouds
8:00 AM 24.8 °F - 24.8 °F 100% 30.06 in 1.9 mi WSW 2.3 mph - N/A Fog Fog
8:30 AM 26.6 °F - 24.8 °F 93% 30.06 in 1.6 mi Calm Calm - N/A   Partly Cloudy
9:00 AM 26.6 °F - 24.8 °F 93% 30.09 in 2.8 mi Variable 2.3 mph - N/A   Partly Cloudy
9:16 AM 26.6 °F 21.2 °F 26.6 °F 100% 30.09 in 3.7 mi SE 4.6 mph - N/A   Unknown
9:30 AM 28.4 °F - 26.6 °F 93% 30.09 in 3.7 mi Variable 2.3 mph - N/A   Unknown
10:00 AM 28.4 °F - 26.6 °F 93% 30.09 in 4.3 mi Variable 2.3 mph - N/A   Unknown
10:30 AM 28.4 °F - 26.6 °F 93% 30.09 in 5.0 mi ESE 2.3 mph - N/A   Unknown
11:00 AM 28.4 °F 24.6 °F 26.6 °F 93% 30.09 in 5.0 mi East 3.5 mph - N/A   Unknown
11:30 AM 30.2 °F 26.7 °F 28.4 °F 93% 30.09 in 4.3 mi East 3.5 mph - N/A   Unknown
12:00 PM 30.2 °F 24.3 °F 28.4 °F 93% 30.09 in 4.3 mi ESE 5.8 mph - N/A   Unknown
12:30 PM 32.0 °F 27.5 °F 30.2 °F 93% 30.06 in 4.3 mi SE 4.6 mph - N/A   Unknown
1:00 PM 32 °F - 30 °F 90% 30.14 in 5 mi SSE 4.5 mph - -   Mist
1:00 PM 32.0 °F 27.5 °F 30.2 °F 93% 30.06 in 5.0 mi SE 4.6 mph - N/A   Unknown
1:30 PM 33.8 °F - 32.0 °F 93% 30.06 in 5.0 mi East 2.3 mph - N/A   Unknown
2:00 PM 35.6 °F 32.8 °F 33.8 °F 93% 30.06 in 6.2 mi SSE 3.5 mph - N/A   Partly Cloudy
2:30 PM 35.6 °F - 32.0 °F 87% 30.06 in 6.2 mi Variable 2.3 mph - N/A   Partly Cloudy
3:00 PM 37.4 °F 31.4 °F 32.0 °F 81% 30.06 in 6.2 mi SE 8.1 mph - N/A   Partly Cloudy
3:30 PM 35.6 °F 29.2 °F 32.0 °F 87% 30.06 in - South 8.1 mph - N/A   Clear
4:00 PM 35.6 °F 29.2 °F 32.0 °F 87% 30.06 in 6.2 mi SSW 8.1 mph - N/A   Mostly Cloudy
4:22 PM 37.4 °F 30.3 °F 33.8 °F 87% 30.06 in 6.2 mi SSW 10.4 mph - N/A Rain Light Rain Showers
4:30 PM 37.4 °F 30.3 °F 33.8 °F 87% 30.06 in 6.2 mi SSW 10.4 mph - N/A Rain Light Rain Showers
5:00 PM 39.2 °F 32.0 °F 33.8 °F 81% 30.09 in 6.2 mi SSW 11.5 mph - N/A   Partly Cloudy
5:30 PM 39.2 °F 30.2 °F 33.8 °F 81% 30.09 in 6.2 mi WSW 17.3 mph - N/A   Partly Cloudy
6:00 PM 37.4 °F 28.9 °F 33.8 °F 87% 30.09 in - WSW 13.8 mph - N/A   Clear
6:30 PM 37.4 °F 28.5 °F 32.0 °F 81% 30.12 in - SW 15.0 mph - N/A   Clear
7:00 PM 37 °F - 33 °F 79% 30.18 in 25 mi SW 13.4 mph - -   Partly Cloudy
7:00 PM 37.4 °F 28.5 °F 32.0 °F 81% 30.12 in 6.2 mi SSW 15.0 mph - N/A   Partly Cloudy
7:30 PM 35.6 °F 27.1 °F 32.0 °F 87% 30.12 in - SSW 12.7 mph - N/A   Clear
8:00 PM 37.4 °F 27.8 °F 32.0 °F 81% 30.12 in - SSW 17.3 mph - N/A   Clear
8:30 PM 35.6 °F 26.2 °F 32.0 °F 87% 30.12 in - SW 15.0 mph - N/A   Clear
9:00 PM 35.6 °F 25.5 °F 32.0 °F 87% 30.12 in - SW 17.3 mph - N/A   Clear
9:30 PM 37.4 °F 28.5 °F 32.0 °F 81% 30.12 in - SW 15.0 mph - N/A   Clear
9:39 PM 35.6 °F 26.2 °F 32.0 °F 87% 30.15 in - SW 15.0 mph - N/A   Clear
10:00 PM 37.4 °F 29.8 °F 32.0 °F 81% 30.15 in - SW 11.5 mph - N/A   Clear
10:30 PM 37.4 °F 28.9 °F 32.0 °F 81% 30.15 in - SW 13.8 mph - N/A   Clear
11:00 PM 37.4 °F 29.8 °F 32.0 °F 81% 30.15 in - SW 11.5 mph - N/A   Clear
11:30 PM 37.4 °F 28.5 °F 32.0 °F 81% 30.15 in - SW 15.0 mph - N/A   Clear